Miscellaneous Local Product
Issued by NWS North Platte, NE

Home | Current Version | Previous Version | Graphics & Text | Print | Product List | Glossary On
Versions: 1 2 3 4 5 6 7 8 9 10 11 12 13 14 15 16 17 18 19 20 21 22 23 24 25 26 27 28 29 30 31 32 33 34 35 36 37 38 39 40 41 42 43 44 45 46 47 48 49 50
863
AXUS43 KLBF 172110
MISLBF


WESTERN AND NORTH CENTRAL NEBRASKA HOURLY WEATHER ROUNDUP
NATIONAL WEATHER SERVICE NORTH PLATTE NE
300 PM CST TUE JAN 17 2017

NOTE: "FAIR" INDICATES FEW OR NO CLOUDS BELOW 12,000 FEET WITH NO
SIGNIFICANT WEATHER AND/OR OBSTRUCTIONS TO VISIBILITY.

NOTE: STATIONS NOT REPORTING VARIABLES SUCH AS SKY/WEATHER OR
PRESSURE ARE PROVIDED BY RAWS AND APRS NETWORKS AND ARE NOT UNDER
NATIONAL WEATHER SERVICE QUALITY CONTROL.

...OBSERVATIONS IN AND NEAR THE EASTERN PANHANDLE OF NEBRASKA...

CITY           SKY/WX    TMP DP  RH WIND       PRES   REMARKS
PINE RIDGE     CLOUDY    37  17  44 W9        29.92F WCI  30
CHADRON        CLOUDY    35  20  54 SW5       29.93F WCI  31
ALLIANCE       SUNNY     45  15  30 W12       29.95F
SIDNEY         SUNNY     45  27  49 SW14      29.98F
CRESCENT LAKE    N/A     43  24  46 SW9         N/A
$$

...OBSERVATIONS IN NORTHERN NEBRASKA AND FAR SOUTHERN SOUTH DAKOTA...

CITY           SKY/WX    TMP DP  RH WIND       PRES   REMARKS
WINNER         FAIR      51  21  30 SW10      29.92F
VALENTINE      SUNNY     53  11  18 SW14      29.92F
THEDFORD       SUNNY     50  24  36 SW13      29.98S
AINSWORTH      SUNNY     50  22  33 SW12      29.95F
O`NEILL        SUNNY     45  34  65 SW7       29.98F
ORD            SUNNY     39  28  64 SW7       30.01S WCI  34
BROKEN BOW     SUNNY     41  30  65 W7        30.00F
VALENTINE NWR    N/A     49  17  27 SW13        N/A
BUTTE            N/A     45  26  47 S7          N/A
HALSEY           N/A     52  17  24 W6G13       N/A
SARGENT          N/A     43  32  65 SW8         N/A
CHAMBERS         N/A     44  33  65 W5          N/A
EWING            N/A     40  35  84 SW5         N/A
$$

...OBSERVATIONS IN SOUTHWEST NEBRASKA AND FAR NORTHEAST COLORADO...

CITY           SKY/WX    TMP DP  RH WIND       PRES   REMARKS
WRAY           FAIR      45  32  61 SW10      30.03F
HOLYOKE        FAIR      43  27  52 SW9       30.01F
IMPERIAL       SUNNY     44  25  47 SW10      30.02F
OGALLALA       SUNNY     43  29  59 W5        30.00F
NORTH PLATTE   SUNNY     46  28  49 W8        30.01F
MCCOOK         SUNNY     45  28  51 SW7       30.04F
LEXINGTON      SUNNY     44  31  60 NW5       30.03F
STAPLETON        N/A     44  29  55 CALM        N/A
GOTHENBURG       N/A     46  26  46 W5          N/A
CALLAWAY         N/A     43  31  63 W12         N/A
$$

...OBSERVATIONS IN CENTRAL LINCOLN COUNTY AREA...

CITY           SKY/WX    TMP DP  RH WIND       PRES   REMARKS
N.P. AIRPORT   SUNNY     46  28  49 W8        30.01F
N.P. DOWNTOWN    N/A     43  29  58 W3          N/A
N.P. SOUTHEAST   N/A     44  28  53 W3          N/A
N.P. HILLCREST   N/A     43  31  63 W9          N/A
$$

...SOME OBSERVATIONS FROM AROUND THE REGION...

CITY           SKY/WX    TMP DP  RH WIND       PRES   REMARKS
LARAMIE        CLOUDY    20  14  77 N6        30.05S WCI  12
CHEYENNE       SUNNY     51   0  12 NW14      29.97S
DENVER         MOSUNNY   43  25  49 S3        29.98F
AKRON          SUNNY     39  29  67 SW9       29.99F WCI  33
SCOTTSBLUFF    SUNNY     47  19  33 NW7       29.96F
RAPID CITY     CLOUDY    36  22  56 CALM      29.87F
BISMARCK       CLOUDY    25  16  68 CALM      29.81F
PIERRE         CLOUDY    24  17  74 S6        29.91F WCI  17
SIOUX FALLS    MOSUNNY   31  23  72 W3        30.00F
OMAHA          CLOUDY    31  26  82 SW5       30.08R WCI  26
GRAND ISLAND   SUNNY     39  35  86 W6        30.05S WCI  35
KANSAS CITY    CLOUDY    37  33  85 W8        30.10R WCI  31
WICHITA        SUNNY     50  28  42 W9        30.11S
OKLAHOMA CITY  MOSUNNY   53  27  36 N8        30.11F
DALLAS         CLOUDY    50  38  63 N10       30.12F
AMARILLO       SUNNY     53  34  48 NW8       30.08F
DODGE CITY     SUNNY     48  32  53 NW7       30.09F
HAYS           SUNNY     46  31  55 W8        30.09F
GOODLAND       SUNNY     45  35  68 SW12      30.03F
$$




USA.gov is the U.S. government's official web portal to all federal, state and local government web resources and services.